TIME,�g��[���C[MJ/h],����[MJ/h],�Ɩ�[MJ/h],�~�[[MJ/h],�①��[MJ/h],��y���[MJ/h],�Ǝ��q��[MJ/h],���̑�[MJ/h],�����G�l���M�[[MJ/h]
2003/5/1 0:00,0.0046,0,0,0.1087,0.2726,0.0405,0.0459,1.242,0
2003/5/1 0:15,0.0043,0,0,0.1323,0.125,0.0429,0.1018,1.2141,0
2003/5/1 0:30,0.0035,0,0,0.1377,0.3875,0.0436,0.1174,0.3781,0
2003/5/1 0:45,0.0029,0,0,0.1391,0.1293,0.0432,0.1191,0.3429,0
2003/5/1 1:00,0.0016,0,0,0.1453,0.2462,0.0439,0.1695,0.338,0
2003/5/1 1:15,0.0006,0,0,0.1394,0.292,0.0435,0.1178,0.3466,0
2003/5/1 1:30,0.0003,0,0,0.142,0.0861,0.0436,0.1197,0.3465,0
2003/5/1 1:45,0.0003,0,0,0.1391,0.2573,0.0435,0.1025,0.3432,0
2003/5/1 2:00,0.0012,0,0,0.142,0.2955,0.0436,0.1528,0.3712,0
2003/5/1 2:15,0.0004,0,0,0.1434,0.0829,0.0439,0.1027,0.3551,0
2003/5/1 2:30,0.0006,0,0,0.1426,0.266,0.0439,0.1089,0.3709,0
2003/5/1 2:45,0.0013,0,0,0.1414,0.2933,0.0442,0.1538,0.3554,0
2003/5/1 3:00,0.0009,0,0,0.1443,0.0789,0.0438,0.1107,0.347,0
2003/5/1 3:15,0.0003,0,0,0.1416,0.2647,0.0433,0.1109,0.3452,0
2003/5/1 3:30,0.0012,0,0,0.1417,0.2928,0.0436,0.1623,0.3349,0
2003/5/1 3:45,0.0003,0,0,0.1437,0.0756,0.0435,0.1115,0.343,0
2003/5/1 4:00,0,0,0,0.1413,0.2628,0.0435,0.1113,0.3361,0
2003/5/1 4:15,0.0004,0,0,0.1447,0.2926,0.0436,0.1168,0.3442,0
2003/5/1 4:30,0.0003,0,0,0.1414,0.072,0.0436,0.163,0.3594,0
2003/5/1 4:45,0.0009,0,0,0.1466,0.2556,0.0436,0.1037,0.4205,0
2003/5/1 5:00,0.0006,0,0,0.1398,0.2926,0.0439,0.1133,0.343,0
2003/5/1 5:15,0.001,0,0,0.1424,0.0688,0.0439,0.1607,0.3358,0
2003/5/1 5:30,0.0003,0,0,1.2455,0.2593,0.0439,0.0511,0.2796,0
2003/5/1 5:45,0.0006,0,0,1.0673,0.2912,0.0435,0.0511,0.5619,0
2003/5/1 6:00,0.0009,0,0,0.3869,0.113,0.1038,0.0984,0.4605,0
2003/5/1 6:15,0.0007,0,0,0.5777,0.2691,0.4065,0.3054,1.0845,0
2003/5/1 6:30,0.0006,0,0,1.1121,0.3037,0.413,0.1146,1.4348,0
2003/5/1 6:45,0.0003,0,0,0.9076,0.1463,0.4139,0.8365,1.1902,0
2003/5/1 7:00,0.0003,0,0,2.2435,0.2897,0.4448,0.4584,1.042,0
2003/5/1 7:15,0.0003,0,0,1.0004,0.3771,0.4074,0.8388,1.0201,0
2003/5/1 7:30,0.0009,0,0,0.1613,0.1525,0.4231,0.0697,1.1173,0
2003/5/1 7:45,0.0004,0,0,0.1597,0.3195,0.4275,0.0622,1.2063,0
2003/5/1 8:00,0.0006,0,0,1.0168,0.376,0.4124,0.1159,1.1802,0
2003/5/1 8:15,0.0003,0,0,0.2043,0.164,0.4344,0.0631,1.11,0
2003/5/1 8:30,0.0009,0,0,0.2118,0.2726,0.3698,0.0631,0.8273,0
2003/5/1 8:45,0.0003,0,0,0.221,0.3408,0.0436,0.1189,0.8405,0
2003/5/1 9:00,0,0,0,0.2085,0.0537,0.0435,0.0631,0.8443,0
2003/5/1 9:15,0,0,0,0.2187,0.3089,0.0433,0.0644,0.7116,0
2003/5/1 9:30,0,0,0,0.211,0.2532,0.0433,0.1129,0.5021,0
2003/5/1 9:45,0,0,0,0.2131,0.0765,0.0433,0.0622,0.2467,0
2003/5/1 10:00,0,0,0,0.2232,0.3054,0.0433,0.0616,0.2511,0
2003/5/1 10:15,0,0,0,0.2082,0.2517,0.0433,0.0618,0.2504,0
2003/5/1 10:30,0,0,0,0.2166,0.0742,0.0433,0.1077,0.2504,0
2003/5/1 10:45,0,0,0,0.2146,0.3069,0.0433,0.06,0.253,0
2003/5/1 11:00,0.0001,0,0,0.2121,0.2982,0.0435,0.0593,0.2399,0
2003/5/1 11:15,0.0006,0,0,0.2163,0.1043,0.0432,0.1119,0.2622,0
2003/5/1 11:30,0.0003,0,0,0.2138,0.3904,0.0433,0.0606,0.2484,0
2003/5/1 11:45,0,0,0,0.2199,0.3596,0.0433,0.0598,0.2497,0
2003/5/1 12:00,0,0,0,0.2084,0.1325,0.0523,0.1034,0.254,0
2003/5/1 12:15,0,0,0,0.2138,0.2033,0.0433,0.0451,0.2465,0
2003/5/1 12:30,0,0,0,0.2111,0.3773,0.0439,0.0465,0.3046,0
2003/5/1 12:45,0.0003,0,0,0.211,0.1986,0.0436,0.0966,0.3637,0
2003/5/1 13:00,0.0003,0,0,0.2124,0.2913,0.0436,0.0622,0.2501,0
2003/5/1 13:15,0.0003,0,0,0.3476,0.3604,0.0433,0.0572,0.3146,0
2003/5/1 13:30,0.0001,0,0,0.3815,0.057,0.0435,0.1025,0.0962,0
2003/5/1 13:45,0,0,0,0.186,0.3851,0.0436,0.0569,0.2642,0
2003/5/1 14:00,0,0,0,0.2255,0.2301,0.0435,0.0564,0.239,0
2003/5/1 14:15,0,0,0,0.2434,0.2519,0.0435,0.1048,0.2392,0
2003/5/1 14:30,0,0,0,0.2395,0.3576,0.0435,0.0559,0.2326,0
2003/5/1 14:45,0.0003,0,0,0.2432,0.0308,0.0436,0.0557,0.2316,0
2003/5/1 15:00,0,0,0,0.2449,0.2183,0.0433,0.1047,0.2402,0
2003/5/1 15:15,0,0,0,0.2444,0.2974,0.0439,0.0396,0.2402,0
2003/5/1 15:30,0.0006,0,0,0.2375,0.1234,0.0435,0.0438,0.2406,0
2003/5/1 15:45,0.0003,0,0,0.2389,0.2808,0.0438,0.0416,0.326,0
2003/5/1 16:00,0.0003,0,0,0.2458,0.2904,0.0435,0.1073,0.661,0
2003/5/1 16:15,0,0,0,0.2429,0.07,0.0436,0.0549,0.8544,0
2003/5/1 16:30,0,0,0,0.2396,0.3764,0.1557,0.0526,1.0865,0
2003/5/1 16:45,0,0,0,0.2421,0.2989,0.5013,0.102,1.2148,0
2003/5/1 17:00,0,0,0,0.2429,0.0968,0.4886,0.0523,0.7688,0
2003/5/1 17:15,0.0003,0,0,0.2393,0.3108,0.5023,0.054,0.7785,0
2003/5/1 17:30,0.0003,0,0,0.2457,0.2287,0.4995,0.0973,0.7792,0
2003/5/1 17:45,0,0,0,0.2409,0.1233,0.4359,0.0536,0.7554,0
2003/5/1 18:00,0.0003,0,0,0.2413,0.3074,0.2976,0.0514,1.0214,0
2003/5/1 18:15,0.0001,0,0,0.2478,0.2893,0.196,0.1001,1.4862,0
2003/5/1 18:30,0,0,0,0.2405,0.0667,0.0887,0.0544,1.5381,0
2003/5/1 18:45,0.0003,0,0,0.2465,0.3005,0.0883,0.0533,1.6582,0
2003/5/1 19:00,0,0,0,1.4103,0.2966,0.3335,0.0553,1.7509,0
2003/5/1 19:15,0,0,0,1.8907,0.3757,0.4617,0.0988,1.5828,0
2003/5/1 19:30,0.0003,0,0,0.18,0.2572,0.3995,0.0553,1.4662,0
2003/5/1 19:45,0.0003,0,0,0.6405,0.1745,0.089,0.0534,1.7911,0
2003/5/1 20:00,0.0003,0,0,0.1392,0.3214,0.0887,0.0996,1.939,0
2003/5/1 20:15,0.0003,0,0,0.141,0.5589,0.0886,0.0527,1.8102,0
2003/5/1 20:30,0.0003,0,0,0.1388,0.4811,0.0883,0.054,1.6069,0
2003/5/1 20:45,0.0003,0,0,0.1349,0.516,0.0883,0.1018,1.2135,0
2003/5/1 21:00,0.0003,0,0,0.1418,0.4517,0.0884,0.0536,0.7631,0
2003/5/1 21:15,0,0,0,0.1382,0.4386,0.0883,0.0559,0.8374,0
2003/5/1 21:30,0,0,0,0.1426,0.4507,0.088,0.1034,1.3134,0
2003/5/1 21:45,0,0,0,0.138,0.2131,0.0886,0.0541,1.3013,0
2003/5/1 22:00,0,0,0,0.1443,0.2094,0.0886,0.0559,1.3478,0
2003/5/1 22:15,0.0001,0,0,0.1408,0.3787,0.0887,0.1051,1.2459,0
2003/5/1 22:30,0.0003,0,0,0.1467,0.1774,0.0884,0.056,1.3,0
2003/5/1 22:45,0,0,0,0.1417,0.129,0.0884,0.0408,1.461,0
2003/5/1 23:00,0,0,0,0.1436,0.3051,0.3695,0.0916,1.2036,0
2003/5/1 23:15,0.0009,0,0,0.1424,0.1655,0.4245,0.0454,1.1726,0
2003/5/1 23:30,0.001,0,0,0.1464,0.192,0.4356,0.0456,1.3746,0
2003/5/1 23:45,0,0,0,0.1408,0.2991,0.193,0.0933,1.532,0
2003/5/2 0:00,0.0003,0,0,0.1444,0.3403,0.0429,0.0458,1.3807,0
2003/5/2 0:15,0,0,0,0.1418,0.2064,0.0428,0.0619,1.4178,0
2003/5/2 0:30,0,0,0,0.145,0.2228,0.0431,0.106,1.1311,0
2003/5/2 0:45,0,0,0,0.1395,0.3741,0.0435,0.1083,0.7111,0
2003/5/2 1:00,0.0009,0,0,0.1417,0.1948,0.0433,0.1201,0.285,0
2003/5/2 1:15,0.0006,0,0,0.1431,0.204,0.0432,0.1198,0.2808,0
2003/5/2 1:30,0.0007,0,0,0.141,0.3748,0.0433,0.1757,0.29,0
2003/5/2 1:45,0.0003,0,0,0.1423,0.1894,0.0436,0.1045,0.2969,0
2003/5/2 2:00,0.0009,0,0,0.1424,0.1997,0.0435,0.1113,0.2976,0
2003/5/2 2:15,0,0,0,0.1418,0.3709,0.0439,0.1627,0.3095,0
2003/5/2 2:30,0.0022,0,0,0.1387,0.1843,0.0441,0.109,0.3648,0
2003/5/2 2:45,0.0006,0,0,0.1443,0.0327,0.0441,0.1106,0.2932,0
2003/5/2 3:00,0.0004,0,0,0.141,0.2966,0.0435,0.1117,0.2736,0
2003/5/2 3:15,0,0,0,0.144,0.2483,0.0432,0.1627,0.289,0
2003/5/2 3:30,0,0,0,0.1405,0.0909,0.0433,0.1129,0.2821,0
2003/5/2 3:45,0.0003,0,0,0.1469,0.3011,0.0435,0.1135,0.2864,0
2003/5/2 4:00,0.0014,0,0,0.1391,0.1008,0.0436,0.1591,0.2887,0
2003/5/2 4:15,0,0,0,0.1477,0.2592,0.0435,0.1138,0.2854,0
2003/5/2 4:30,0.0004,0,0,0.143,0.184,0.0435,0.1142,0.2868,0
2003/5/2 4:45,0.0003,0,0,0.1427,0.1729,0.0438,0.1673,0.3028,0
2003/5/2 5:00,0.0012,0,0,0.1401,0.2733,0.0436,0.1164,0.3836,0
2003/5/2 5:15,0.0004,0,0,0.1444,0.0801,0.0439,0.1153,0.287,0
2003/5/2 5:30,0,0,0,0.5917,0.3027,0.0436,0.1668,0.2484,0
2003/5/2 5:45,0.0009,0,0,1.1745,0.0713,0.0438,0.0618,0.1956,0
2003/5/2 6:00,0.0006,0,0,0.8473,0.2903,0.0439,0.0541,0.2838,0
2003/5/2 6:15,0.0012,0,0,0.3568,0.156,0.0439,0.1168,0.2966,0
2003/5/2 6:30,0.001,0,0,0.2958,0.2023,0.0438,0.0649,0.274,0
2003/5/2 6:45,0.0003,0,0,0.1597,0.247,0.2022,0.0595,0.5531,0
2003/5/2 7:00,0,0,0,0.4379,0.1089,0.4306,0.1165,1.1327,0
2003/5/2 7:15,0,0,0,1.5342,0.31,0.4139,0.067,1.1022,0
2003/5/2 7:30,0,0,0,2.3541,0.3368,0.426,0.0641,1.2365,0
2003/5/2 7:45,0,0,0,0.8598,0.3105,0.4143,0.113,1.2074,0
2003/5/2 8:00,0.0013,0,0,0.1951,0.1224,0.415,0.0996,1.2815,0
2003/5/2 8:15,0,0,0,0.2056,0.3872,0.4248,0.0655,1.2429,0
2003/5/2 8:30,0,0,0,0.2085,0.1741,0.3881,0.1021,1.1984,0
2003/5/2 8:45,0,0,0,0.2125,0.1172,0.0423,0.0667,0.7266,0
2003/5/2 9:00,0,0,0,0.2138,0.3082,0.0426,0.1074,0.7337,0
2003/5/2 9:15,0,0,0,0.2627,0.3318,0.0431,0.0733,0.7305,0
2003/5/2 9:30,0,0,0,0.2496,0.0852,0.0431,0.0636,0.717,0
2003/5/2 9:45,0,0,0,0.2346,0.3997,0.0432,0.0648,0.6538,0
2003/5/2 10:00,0,0,0,0.2265,0.3609,0.0431,0.1129,0.4739,0
2003/5/2 10:15,0,0,0,0.214,0.0379,0.0433,0.0621,0.3682,0
2003/5/2 10:30,0.0003,0,0,0.2148,0.3928,0.0433,0.0608,0.3815,0
2003/5/2 10:45,0.0006,0,0,0.2101,0.3944,0.0435,0.1112,0.3771,0
2003/5/2 11:00,0,0,0,0.2095,0.0662,0.0435,0.0612,0.3802,0
2003/5/2 11:15,0,0,0,0.2066,0.3696,0.0435,0.0605,0.3695,0
2003/5/2 11:30,0,0,0,0.2043,0.3577,0.0435,0.1087,0.401,0
2003/5/2 11:45,0,0,0,0.2056,0.0924,0.0433,0.06,0.4212,0
2003/5/2 12:00,0.0003,0,0,0.2043,0.2419,0.0523,0.0573,0.5204,0
2003/5/2 12:15,0.0003,0,0,0.2045,0.3858,0.0435,0.0981,0.4032,0
2003/5/2 12:30,0.0003,0,0,0.202,0.257,0.0435,0.0461,0.5016,0
2003/5/2 12:45,0,0,0,0.2061,0.0435,0.0435,0.0456,0.4687,0
2003/5/2 13:00,0.0001,0,0,0.198,0.2373,0.0433,0.0626,0.5404,0
2003/5/2 13:15,0.0003,0,0,0.2048,0.3005,0.0432,0.1044,0.4925,0
2003/5/2 13:30,0,0,0,0.2586,0.0808,0.0433,0.0543,0.3675,0
2003/5/2 13:45,0.0003,0,0,0.4186,0.2324,0.0433,0.0559,0.2124,0
2003/5/2 14:00,0,0,0,0.326,0.2965,0.0432,0.1077,0.3069,0
2003/5/2 14:15,0,0,0,0.1565,0.1165,0.0435,0.0552,0.4046,0
2003/5/2 14:30,0,0,0,0.2199,0.2483,0.0433,0.053,0.3796,0
2003/5/2 14:45,0,0,0,0.2308,0.2988,0.0432,0.1107,0.8948,0
2003/5/2 15:00,0,0,0,0.2246,0.0638,0.0436,0.057,2.0624,0
2003/5/2 15:15,0,0,0,0.2337,0.3859,0.0433,0.0386,2.1434,0
2003/5/2 15:30,0.0003,0,0,0.2285,0.3839,0.0435,0.0419,1.3271,0
2003/5/2 15:45,0.0003,0,0,0.2284,0.292,0.1781,0.091,1.2986,0
2003/5/2 16:00,0,0,0,0.2308,0.1397,0.4085,0.0575,1.3723,0
2003/5/2 16:15,0.0012,0,0,0.2278,0.3902,0.4146,0.0544,1.237,0
2003/5/2 16:30,0.001,0,0,0.2354,0.2785,0.4137,0.1086,1.2767,0
2003/5/2 16:45,0.0017,0,0,0.228,0.0312,0.4143,0.0517,1.1917,0
2003/5/2 17:00,0.0027,0,0,0.2301,0.2634,0.1607,0.0531,1.1244,0
2003/5/2 17:15,0.0035,0,0,0.2356,0.3018,0.0431,0.0516,1.0231,0
2003/5/2 17:30,0.0017,0,0,0.2294,0.1005,0.0429,0.1007,0.5928,0
2003/5/2 17:45,0.0003,0,0,0.235,0.2498,0.0428,0.0517,0.5995,0
2003/5/2 18:00,0.0006,0,0,0.233,0.2989,0.0426,0.0523,0.5917,0
2003/5/2 18:15,0.0014,0,0,0.2298,0.12,0.0423,0.1015,0.5937,0
2003/5/2 18:30,0.0003,0,0,0.2334,0.2737,0.0432,0.0514,0.5983,0
2003/5/2 18:45,0.0007,0,0,0.2402,0.2992,0.1835,0.0517,0.741,0
2003/5/2 19:00,0.0006,0,0,0.237,0.0786,0.4474,0.0701,1.0113,0
2003/5/2 19:15,0,0,0,2.5062,0.3593,0.4238,0.0831,1.1889,0
2003/5/2 19:30,0.0003,0,0,0.1377,0.3727,0.2946,0.0503,1.083,0
2003/5/2 19:45,0.0003,0,0,0.1338,0.095,0.1113,0.0511,1.0421,0
2003/5/2 20:00,0.0012,0,0,0.1323,0.3532,0.0624,0.108,1.2794,0
2003/5/2 20:15,0.0014,0,0,0.1346,0.3705,0.0428,0.0513,1.7336,0
2003/5/2 20:30,0.002,0,0,0.1374,0.1253,0.0432,0.0511,1.3648,0
2003/5/2 20:45,0.0036,0,0,0.1391,0.1846,0.0432,0.0527,1.1881,0
2003/5/2 21:00,0.0012,0,0,0.1404,0.3067,0.0429,0.0963,1.3209,0
2003/5/2 21:15,0.0006,0,0,0.1381,0.3208,0.0429,0.0445,1.5572,0
2003/5/2 21:30,0.0027,0,0,0.1391,0.1103,0.0429,0.0364,1.6125,0
2003/5/2 21:45,0.0032,0,0,0.1361,0.3977,0.0433,0.0744,1.3576,0
2003/5/2 22:00,0.002,0,0,0.1392,0.3381,0.0436,0.0419,1.7467,0
2003/5/2 22:15,0.0012,0,0,0.1388,0.1015,0.0435,0.051,1.225,0
2003/5/2 22:30,0.0026,0,0,0.1339,0.3933,0.0433,0.0511,1.3451,0
2003/5/2 22:45,0.0043,0,0,0.1361,0.1538,0.0435,0.0844,1.4213,0
2003/5/2 23:00,0.0037,0,0,0.141,0.1917,0.0432,0.0423,1.2512,0
2003/5/2 23:15,0.0024,0,0,0.1331,0.2991,0.0431,0.0433,1.1046,0
2003/5/2 23:30,0.0023,0,0,0.1392,0.1068,0.0432,0.1054,1.12,0
2003/5/2 23:45,0.0045,0,0,0.1372,0.2239,0.0431,0.1054,1.0136,0
2003/5/3 0:00,0.002,0,0,0.1355,0.301,0.0433,0.1058,0.9734,0
2003/5/3 0:15,0.0003,0,0,0.1325,0.104,0.0432,0.174,1.0001,0
2003/5/3 0:30,0.0009,0,0,0.1407,0.2468,0.0436,0.1164,0.9733,0
2003/5/3 0:45,0.0016,0,0,0.1356,0.2978,0.0436,0.1176,0.8148,0
2003/5/3 1:00,0.0017,0,0,0.1328,0.1004,0.0436,0.1179,0.3613,0
2003/5/3 1:15,0,0,0,0.1405,0.1958,0.0435,0.1646,0.3525,0
2003/5/3 1:30,0.0003,0,0,0.1369,0.572,0.0436,0.1175,0.358,0
2003/5/3 1:45,0.0013,0,0,0.1349,0.4926,0.0439,0.1021,0.361,0
2003/5/3 2:00,0.0009,0,0,0.1356,0.5138,0.0436,0.1585,0.3668,0
2003/5/3 2:15,0.0001,0,0,0.1365,0.452,0.0438,0.1064,0.3685,0
2003/5/3 2:30,0,0,0,0.1345,0.4368,0.0438,0.1066,0.3587,0
2003/5/3 2:45,0.0003,0,0,0.1388,0.4543,0.0439,0.1554,0.3599,0
2003/5/3 3:00,0.0012,0,0,0.1362,0.2784,0.0436,0.1067,0.3754,0
2003/5/3 3:15,0,0,0,0.1378,0.149,0.0432,0.1087,0.3522,0
2003/5/3 3:30,0,0,0,0.1346,0.3812,0.0433,0.107,0.3671,0
2003/5/3 3:45,0,0,0,0.1369,0.2382,0.0432,0.1594,0.3639,0
2003/5/3 4:00,0,0,0,0.1362,0.2252,0.0432,0.1079,0.3613,0
2003/5/3 4:15,0,0,0,0.141,0.372,0.0435,0.1073,0.3639,0
2003/5/3 4:30,0,0,0,0.1354,0.1456,0.0432,0.1369,0.3571,0
2003/5/3 4:45,0.0007,0,0,0.1368,0.3276,0.0433,0.0445,0.3462,0
2003/5/3 5:00,0.0006,0,0,0.1362,0.2893,0.0435,0.0469,0.3591,0
2003/5/3 5:15,0.0003,0,0,0.1421,0.1774,0.0435,0.0793,0.3478,0
2003/5/3 5:30,0.0006,0,0,0.1365,0.3747,0.0438,0.213,0.4059,0
2003/5/3 5:45,0,0,0,0.1385,0.2781,0.0436,1.0048,0.2942,0
2003/5/3 6:00,0.0003,0,0,0.1355,0.0684,0.0436,0.4533,0.3888,0
2003/5/3 6:15,0,0,0,0.1371,0.3946,0.0438,0.9023,0.3064,0
2003/5/3 6:30,0,0,0,0.1403,0.2759,0.0435,0.2252,0.3401,0
2003/5/3 6:45,0.0004,0,0,0.1368,0.1941,0.0436,0.0498,0.3794,0
2003/5/3 7:00,0.0006,0,0,0.139,0.3744,0.0609,0.105,0.3247,0
2003/5/3 7:15,0.0003,0,0,0.1358,0.1194,0.0433,0.0564,0.308,0
2003/5/3 7:30,0.0003,0,0,0.1397,0.3414,0.0435,0.0552,0.6772,0
2003/5/3 7:45,0.0003,0,0,0.1407,0.2529,0.0432,0.1083,0.8149,0
2003/5/3 8:00,0.0003,0,0,0.1384,0.2059,0.0433,0.0573,0.7927,0
2003/5/3 8:15,0.0006,0,0,0.1359,0.3717,0.184,0.0592,0.8015,0
2003/5/3 8:30,0.0003,0,0,0.1416,0.1058,0.432,0.0579,0.8248,0
2003/5/3 8:45,0.0004,0,0,0.138,0.2006,0.4192,0.1032,0.8893,0
2003/5/3 9:00,0.0012,0,0,1.1497,0.304,0.4149,0.0651,1.4318,0
2003/5/3 9:15,0.0003,0,0,1.801,0.272,0.4222,0.1096,2.5919,0
2003/5/3 9:30,0.0007,0,0,0.3927,0.1172,0.1297,0.0626,1.2367,0
2003/5/3 9:45,0.0003,0,0,0.1364,0.3946,0.0429,0.1083,1.2557,0
2003/5/3 10:00,0.0009,0,0,0.1375,0.2864,0.0431,0.0625,1.419,0
2003/5/3 10:15,0.0003,0,0,0.1398,0.1272,0.0429,0.0611,1.1612,0
2003/5/3 10:30,0.0006,0,0,0.1371,0.3861,0.0431,0.1102,1.2424,0
2003/5/3 10:45,0.0006,0,0,0.1368,0.0805,0.0435,0.0562,1.247,0
2003/5/3 11:00,0.0013,0,0,0.1354,0.2416,0.0435,0.0517,1.1331,0
2003/5/3 11:15,0.0014,0,0,0.1374,0.2955,0.0435,0.0569,1.1104,0
2003/5/3 11:30,0.002,0,0,0.1341,0.09,0.0435,0.1009,1.1447,0
2003/5/3 11:45,0.0027,0,0,0.1345,0.2943,0.0435,0.0534,1.1189,0
2003/5/3 12:00,0.0037,0,0,0.1351,0.3011,0.0523,0.0524,1.1131,0
2003/5/3 12:15,0.0024,0,0,0.1312,0.1895,0.0433,0.2913,1.0446,0
2003/5/3 12:30,0.0022,0,0,0.1359,0.1951,0.0436,0.1751,1.1841,0
2003/5/3 12:45,0.0016,0,0,0.1313,0.3938,0.0433,0.0376,0.8948,0
2003/5/3 13:00,0.0012,0,0,0.1348,0.2625,0.0435,0.0949,0.6729,0
2003/5/3 13:15,0.002,0,0,0.1335,0.1672,0.0985,0.0478,0.6127,0
2003/5/3 13:30,0.0012,0,0,2.3851,0.3898,0.0472,0.048,0.9811,0
2003/5/3 13:45,0.001,0,0,2.1673,0.3017,0.0435,0.095,1.0983,0
2003/5/3 14:00,0.0012,0,0,0.32,0.1692,0.0436,0.0468,1.0886,0
2003/5/3 14:15,0.0003,0,0,0.1313,0.3992,0.0438,0.0461,1.0732,0
2003/5/3 14:30,0,0,0,0.1269,0.3555,0.0436,0.0802,1.0925,0
2003/5/3 14:45,0,0,0,0.1335,0.0672,0.0432,0.0454,0.9654,0
2003/5/3 15:00,0,0,0,0.1315,0.4005,0.0435,0.0945,0.6113,0
2003/5/3 15:15,0,0,0,0.1323,0.3663,0.0436,0.0291,0.6191,0
2003/5/3 15:30,0,0,0,0.1306,0.0549,0.0433,0.0321,0.61,0
2003/5/3 15:45,0,0,0,0.1325,0.401,0.0435,0.069,0.6136,0
2003/5/3 16:00,0.0003,0,0,0.1296,0.3413,0.0432,0.0481,0.6067,0
2003/5/3 16:15,0,0,0,0.131,0.0822,0.0433,0.0432,0.6051,0
2003/5/3 16:30,0,0,0,0.1339,0.3964,0.0432,0.0855,0.6487,0
2003/5/3 16:45,0,0,0,0.1306,0.3336,0.0431,0.0397,0.8529,0
2003/5/3 17:00,0,0,0,0.1282,0.0847,0.0429,0.0442,1.2684,0
2003/5/3 17:15,0,0,0,0.1312,0.3986,0.0432,0.0851,1.1295,0
2003/5/3 17:30,0,0,0,0.1325,0.3889,0.0429,0.0442,1.0587,0
2003/5/3 17:45,0,0,0,0.1323,0.3498,0.0431,0.0439,1.0557,0
2003/5/3 18:00,0,0,0,0.1297,0.0887,0.0429,0.0927,1.0401,0
2003/5/3 18:15,0,0,0,0.1316,0.3954,0.0426,0.0433,1.0544,0
2003/5/3 18:30,0,0,0,0.1299,0.3272,0.0431,0.0423,1.5322,0
2003/5/3 18:45,0,0,0,0.8758,0.0305,0.0433,0.0436,1.7319,0
2003/5/3 19:00,0,0,0,2.4375,0.2737,0.1983,0.0837,1.2751,0
2003/5/3 19:15,0,0,0,2.4255,0.3077,0.4445,0.0432,1.097,0
2003/5/3 19:30,0,0,0,0.7416,0.3596,0.3103,0.0428,1.0063,0
2003/5/3 19:45,0,0,0,0.6648,0.3888,0.0432,0.0857,1.0966,0
2003/5/3 20:00,0,0,0,0.1603,0.382,0.0433,0.0429,1.045,0
2003/5/3 20:15,0,0,0,0.1513,0.3482,0.0433,0.0425,1.1435,0
2003/5/3 20:30,0,0,0,0.1535,0.0317,0.0436,0.0425,1.1411,0
2003/5/3 20:45,0,0,0,0.1518,0.2547,0.0435,0.0893,1.2028,0
2003/5/3 21:00,0,0,0,0.1666,0.3069,0.0436,0.042,1.3113,0
2003/5/3 21:15,0,0,0,0.1898,0.3442,0.0435,0.0467,1.678,0
2003/5/3 21:30,0,0,0,0.1889,0.0579,0.0431,0.0958,1.4623,0
2003/5/3 21:45,0,0,0,0.1901,0.4008,0.0432,0.0465,1.2253,0
2003/5/3 22:00,0,0,0,0.1912,0.372,0.0432,0.0462,1.2329,0
2003/5/3 22:15,0,0,0,0.1947,0.1326,0.0435,0.0462,1.6448,0
2003/5/3 22:30,0,0,0,0.1902,0.1296,0.0435,0.087,1.1549,0
2003/5/3 22:45,0,0,0,0.1951,0.3096,0.0432,0.0264,1.2387,0
2003/5/3 23:00,0,0,0,0.1977,0.3195,0.1038,0.0308,1.0826,0
2003/5/3 23:15,0,0,0,0.6924,0.3786,0.3986,0.031,1.1341,0
2003/5/3 23:30,0,0,0,2.1031,0.1706,0.4152,0.0945,1.1015,0
2003/5/3 23:45,0,0,0,0.092,0.2729,0.4275,0.0422,1.0875,0
2003/5/4 0:00,0,0,0,0.1211,0.3974,0.4121,0.0426,0.9932,0
2003/5/4 0:15,0,0,0,0.158,0.3777,0.4042,0.086,0.9235,0
2003/5/4 0:30,0,0,0,0.1894,0.0327,0.4029,0.042,0.9151,0
2003/5/4 0:45,0,0,0,0.1951,0.2978,0.3954,0.0416,0.914,0
2003/5/4 1:00,0,0,0,0.2076,0.3072,0.162,0.0259,0.5884,0
2003/5/4 1:15,0,0,0,0.1992,0.2961,0.0432,0.075,0.3282,0
2003/5/4 1:30,0,0,0,0.1979,0.05,0.0432,0.0312,0.3404,0
2003/5/4 1:45,0.0001,0,0,0.2655,0.3224,0.0436,0.0308,0.3024,0
2003/5/4 2:00,0,0,0,0.4094,0.308,0.0436,0.0801,0.1146,0
2003/5/4 2:15,0,0,0,0.294,0.2948,0.0435,0.031,0.2137,0
2003/5/4 2:30,0.0003,0,0,0.1688,0.3066,0.0432,0.0317,0.2894,0
2003/5/4 2:45,0.0003,0,0,0.2156,0.347,0.0433,0.0327,0.2604,0
2003/5/4 3:00,0,0,0,0.23,0.5695,0.0431,0.0757,0.273,0
2003/5/4 3:15,0,0,0,0.231,0.4844,0.0428,0.033,0.2631,0
2003/5/4 3:30,0,0,0,0.2389,0.523,0.0429,0.033,0.2638,0
2003/5/4 3:45,0.0003,0,0,0.2352,0.47,0.0431,0.0861,0.274,0
2003/5/4 4:00,0,0,0,0.2324,0.4496,0.0432,0.032,0.2635,0
2003/5/4 4:15,0,0,0,0.2336,0.4667,0.0432,0.0333,0.2576,0
2003/5/4 4:30,0.0009,0,0,0.2382,0.4713,0.0433,0.0333,0.2746,0
2003/5/4 4:45,0.001,0,0,0.2321,0.339,0.0432,0.0816,0.273,0
2003/5/4 5:00,0.0009,0,0,0.2383,0.0766,0.0439,0.0337,0.2566,0
2003/5/4 5:15,0.005,0,0,0.2366,0.3963,0.0439,0.0337,0.276,0
2003/5/4 5:30,0.005,0,0,0.2389,0.3613,0.0438,0.0334,0.2763,0
2003/5/4 5:45,0.0053,0,0,0.2328,0.3974,0.0438,0.0822,0.267,0
2003/5/4 6:00,0.0023,0,0,0.2372,0.2828,0.0436,0.0336,0.2704,0
2003/5/4 6:15,0.003,0,0,0.2364,0.0324,0.0435,0.0508,0.2589,0
2003/5/4 6:30,0.0019,0,0,0.2353,0.3876,0.0432,0.0465,0.2593,0
2003/5/4 6:45,0.0019,0,0,0.2366,0.3692,0.0429,0.0952,0.258,0
2003/5/4 7:00,0.0003,0,0,0.2352,0.0467,0.06,0.0461,0.2742,0
2003/5/4 7:15,0,0,0,0.2337,0.39,0.0426,0.0461,0.2604,0
2003/5/4 7:30,0.0022,0,0,0.2372,0.3564,0.0431,0.1079,0.306,0
2003/5/4 7:45,0.0006,0,0,0.2163,0.0444,0.0431,0.0446,0.2608,0
2003/5/4 8:00,0.0009,0,0,0.1699,0.3959,0.0431,0.0446,0.363,0
2003/5/4 8:15,0.0033,0,0,0.1577,0.3505,0.0435,0.0929,1.0021,0
2003/5/4 8:30,0,0,0,0.1714,0.0304,0.0426,0.0426,0.6869,0
2003/5/4 8:45,0.0003,0,0,0.6467,0.2048,0.0428,0.0857,0.8127,0
2003/5/4 9:00,0,0,0,0.1954,0.309,0.1079,0.0523,0.7134,0
2003/5/4 9:15,0,0,0,0.1943,0.3401,0.0433,0.0966,0.6657,0
2003/5/4 9:30,0,0,0,0.1981,0.0687,0.0704,0.051,0.4581,0
2003/5/4 9:45,0,0,0,0.2078,0.3851,0.1107,0.0511,0.2671,0
2003/5/4 10:00,0,0,0,0.1915,0.3748,0.0852,0.0986,0.2681,0
2003/5/4 10:15,0,0,0,0.199,0.1371,0.0432,0.0524,0.266,0
2003/5/4 10:30,0,0,0,0.2025,0.1467,0.0433,0.0503,0.2753,0
2003/5/4 10:45,0,0,0,0.1989,0.3106,0.0435,0.0516,0.2629,0
2003/5/4 11:00,0.0003,0,0,0.1938,0.2832,0.0431,0.1043,0.2717,0
2003/5/4 11:15,0,0,0,0.2015,0.0701,0.0435,0.0495,0.2641,0
2003/5/4 11:30,0,0,0,0.1951,0.3145,0.0431,0.0487,0.271,0
2003/5/4 11:45,0,0,0,0.2023,0.2723,0.0432,0.0492,0.2729,0
2003/5/4 12:00,0,0,0,0.1979,0.0842,0.0517,0.0968,0.2589,0
2003/5/4 12:15,0,0,0,0.1989,0.3144,0.0431,0.0311,0.2604,0
2003/5/4 12:30,0,0,0,0.1947,0.2789,0.0433,0.0336,0.2591,0
2003/5/4 12:45,0,0,0,0.195,0.0759,0.0431,0.0341,0.2723,0
2003/5/4 13:00,0.0003,0,0,0.1951,0.3145,0.0429,0.0765,0.267,0
2003/5/4 13:15,0,0,0,0.198,0.2987,0.0433,0.0327,0.2608,0
2003/5/4 13:30,0,0,0,0.1958,0.0514,0.0431,0.0327,0.2681,0
2003/5/4 13:45,0,0,0,0.2632,0.3205,0.0431,0.0952,0.2143,0
2003/5/4 14:00,0,0,0,0.3986,0.3002,0.0433,0.0451,0.0708,0
2003/5/4 14:15,0,0,0,0.2781,0.0779,0.0431,0.0449,0.1889,0
2003/5/4 14:30,0,0,0,0.1627,0.2929,0.0433,0.0284,0.3067,0
2003/5/4 14:45,0,0,0,0.2163,0.3054,0.0431,0.0762,0.419,0
2003/5/4 15:00,0,0,0,0.2205,0.1446,0.0432,0.0314,0.2562,0
2003/5/4 15:15,0,0,0,0.2197,0.22,0.0432,0.0311,0.4353,0
2003/5/4 15:30,0,0,0,0.228,0.3087,0.0431,0.0312,0.3961,0
2003/5/4 15:45,0,0,0,0.2261,0.1964,0.0431,0.0812,0.4736,0
2003/5/4 16:00,0,0,0,0.2235,0.1644,0.0432,0.0485,0.419,0
2003/5/4 16:15,0,0,0,0.2259,0.3118,0.0431,0.0438,0.3159,0
2003/5/4 16:30,0,0,0,0.2284,0.3256,0.0431,0.0432,0.394,0
2003/5/4 16:45,0,0,0,0.2226,0.3774,0.0436,0.0924,0.361,0
2003/5/4 17:00,0,0,0,0.2268,0.1673,0.0433,0.0432,0.284,0
2003/5/4 17:15,0,0,0,0.2238,0.2683,0.0433,0.0431,0.4945,0
2003/5/4 17:30,0,0,0,0.2287,0.3784,0.0433,0.0429,0.4496,0
2003/5/4 17:45,0,0,0,0.2197,0.3083,0.0432,0.0528,0.4355,0
2003/5/4 18:00,0,0,0,0.2298,0.0546,0.0703,0.0788,0.3987,0
2003/5/4 18:15,0,0,0,0.2288,0.4008,0.1107,0.0419,0.3203,0
2003/5/4 18:30,0,0,0,0.2264,0.336,0.1106,0.0425,0.3047,0
2003/5/4 18:45,0,0,0,0.2231,0.0819,0.1109,0.0422,0.2943,0
2003/5/4 19:00,0,0,0,0.2294,0.3957,0.1112,0.0914,0.3092,0
2003/5/4 19:15,0,0,0,0.2246,0.327,0.1113,0.0422,0.3015,0
2003/5/4 19:30,0,0,0,0.2267,0.0723,0.1115,0.0423,0.3352,0
2003/5/4 19:45,0,0,0,0.2327,0.395,0.1115,0.0422,0.4764,0
2003/5/4 20:00,0,0,0,0.2233,0.3241,0.0432,0.0924,0.4906,0
2003/5/4 20:15,0,0,0,0.2313,0.0308,0.0435,0.0426,0.4055,0
2003/5/4 20:30,0,0,0,0.2241,0.2462,0.0436,0.0423,0.3495,0
2003/5/4 20:45,0,0,0,0.2313,0.3047,0.0435,0.0425,0.4473,0
2003/5/4 21:00,0,0,0,0.2303,0.12,0.0436,0.0429,0.3637,0
2003/5/4 21:15,0,0,0,0.2323,0.2434,0.0438,0.0919,0.326,0
2003/5/4 21:30,0,0,0,0.2287,0.3018,0.0432,0.0429,0.3577,0
2003/5/4 21:45,0,0,0,0.2251,0.1123,0.0433,0.0428,0.4474,0
2003/5/4 22:00,0,0,0,0.231,0.2399,0.0433,0.0429,0.4163,0
2003/5/4 22:15,0,0,0,0.2353,0.304,0.0435,0.0927,0.4401,0
2003/5/4 22:30,0,0,0,0.2284,0.1096,0.0433,0.0431,0.4958,0
2003/5/4 22:45,0,0,0,0.2281,0.254,0.0432,0.0271,0.8696,0
2003/5/4 23:00,0,0,0,0.4926,0.3061,0.0431,0.0275,1.7839,0
2003/5/4 23:15,0,0,0,0.2316,0.3492,0.0431,0.0311,1.6838,0
2003/5/4 23:30,0,0,0,0.2301,0.3692,0.0432,0.0744,1.5605,0
2003/5/4 23:45,0,0,0,0.2274,0.0465,0.0429,0.0289,1.5045,0
2003/5/5 0:00,0,0,0,0.2327,0.397,0.0431,0.0289,1.3506,0
2003/5/5 0:15,0,0,0,0.2269,0.1904,0.1989,0.0454,1.1262,0
2003/5/5 0:30,0,0,0,0.2275,0.2559,0.4036,0.0896,1.2429,0
2003/5/5 0:45,0,0,0,0.2232,0.379,0.4218,0.038,1.1845,0
2003/5/5 1:00,0,0,0,0.235,0.1787,0.4196,0.0384,1.1193,0
2003/5/5 1:15,0,0,0,0.2298,0.251,0.075,0.0546,1.0073,0
2003/5/5 1:30,0,0,0,0.2275,0.3793,0.0436,0.1454,0.8865,0
2003/5/5 1:45,0,0,0,0.2311,0.1745,0.0436,0.0873,0.3427,0
2003/5/5 2:00,0,0,0,0.2303,0.2359,0.0432,0.0909,0.4699,0
2003/5/5 2:15,0,0,0,0.2349,0.3803,0.0432,0.1356,0.5116,0
2003/5/5 2:30,0,0,0,0.234,0.3675,0.0435,0.091,0.486,0